TVF25XN LFLL-LEPA

Flight info

Callsign TVF25XN
Flight time 1h 14m
Altitude 37000
Route ROMAM A6 MTL DCT DIVKO DCT VATIR DCT PIVUS DCT BODEQ DCT VERSO L129 LUNIK
Aircraft A320/M-SDE3FGHIRWY/LB1

Departure

Time 2026-05-06 10:45
Airport Lyon Saint-Exupéry Airport (LFLL)

Arrival

Time 2026-05-06 12:00
Airport Palma de Mallorca Airport (LEPA)
Time Latitude Longitude Altitude Speed Heading
2026-05-06 10:01 45.71592 5.08267 775 ft 0 kts 195°
2026-05-06 10:35 45.71596 5.08269 802 ft 2 kts 195°
2026-05-06 10:35 45.71615 5.08275 802 ft 3 kts 191°
2026-05-06 10:35 45.71635 5.08279 801 ft 3 kts 183°
2026-05-06 10:36 45.71655 5.08279 801 ft 3 kts 166°
2026-05-06 10:36 45.71671 5.08270 801 ft 3 kts 121°
2026-05-06 10:36 45.71674 5.08257 801 ft 1 kts 87°
2026-05-06 10:36 45.71674 5.08252 801 ft 0 kts 87°
2026-05-06 10:39 45.71674 5.08264 801 ft 2 kts 87°
2026-05-06 10:39 45.71675 5.08274 801 ft 2 kts 87°
2026-05-06 10:39 45.71678 5.08328 800 ft 7 kts 85°
2026-05-06 10:40 45.71681 5.08390 800 ft 5 kts 85°
2026-05-06 10:40 45.71683 5.08412 800 ft 0 kts 85°
2026-05-06 10:40 45.71684 5.08428 801 ft 4 kts 86°
2026-05-06 10:41 45.71670 5.08478 802 ft 6 kts 136°
2026-05-06 10:41 45.71639 5.08501 803 ft 5 kts 160°
2026-05-06 10:41 45.71609 5.08520 803 ft 4 kts 147°
2026-05-06 10:41 45.71599 5.08539 803 ft 1 kts 120°
2026-05-06 10:42 45.71597 5.08580 804 ft 9 kts 84°
2026-05-06 10:42 45.71602 5.08653 806 ft 5 kts 84°
2026-05-06 10:42 45.71603 5.08679 807 ft 0 kts 84°
2026-05-06 10:42 45.71604 5.08691 807 ft 5 kts 84°
2026-05-06 10:43 45.71611 5.08792 811 ft 11 kts 85°
2026-05-06 10:43 45.71616 5.08879 812 ft 8 kts 85°
2026-05-06 10:43 45.71628 5.08945 810 ft 6 kts 47°
2026-05-06 10:44 45.71682 5.08958 815 ft 4 kts 356°
2026-05-06 10:44 45.71829 5.08942 812 ft 54 kts 356°
2026-05-06 10:44 45.72429 5.08868 796 ft 117 kts 355°
2026-05-06 10:44 45.73410 5.08749 784 ft 163 kts 355°
2026-05-06 10:45 45.74643 5.08606 1086 ft 181 kts 356°
2026-05-06 10:45 45.75886 5.08460 1791 ft 182 kts 354°
2026-05-06 10:45 45.77160 5.08293 2354 ft 190 kts 353°
2026-05-06 10:45 45.78559 5.08112 2657 ft 213 kts 353°
2026-05-06 10:46 45.80132 5.07916 2950 ft 242 kts 353°
2026-05-06 10:46 45.81866 5.07749 3633 ft 254 kts 359°
2026-05-06 10:46 45.83549 5.08475 4629 ft 261 kts 34°
2026-05-06 10:46 45.84668 5.10494 5556 ft 262 kts 71°
2026-05-06 10:47 45.84790 5.13058 6425 ft 261 kts 107°
2026-05-06 10:47 45.83890 5.15246 7199 ft 257 kts 142°
2026-05-06 10:47 45.82323 5.16385 8040 ft 254 kts 167°
2026-05-06 10:47 45.80598 5.16918 8958 ft 254 kts 173°
2026-05-06 10:48 45.78847 5.17254 9881 ft 254 kts 175°
2026-05-06 10:48 45.77095 5.17588 10716 ft 254 kts 175°
2026-05-06 10:48 45.75352 5.18046 11548 ft 258 kts 167°
2026-05-06 10:48 45.73642 5.18890 12285 ft 263 kts 162°
2026-05-06 10:49 45.71908 5.19769 13022 ft 265 kts 169°
2026-05-06 10:49 45.70080 5.20134 13456 ft 278 kts 182°
2026-05-06 10:49 45.68071 5.20095 13647 ft 300 kts 184°
2026-05-06 10:49 45.65908 5.19972 13831 ft 321 kts 184°
2026-05-06 10:50 45.63647 5.19808 14348 ft 328 kts 185°
2026-05-06 10:50 45.61352 5.19639 14990 ft 332 kts 185°
2026-05-06 10:50 45.59039 5.19475 15653 ft 334 kts 184°
2026-05-06 10:50 45.56711 5.19315 16307 ft 336 kts 184°
2026-05-06 10:51 45.54365 5.19159 16965 ft 339 kts 184°
2026-05-06 10:51 45.52000 5.19007 17650 ft 341 kts 184°
2026-05-06 10:51 45.49617 5.18855 18313 ft 344 kts 184°
2026-05-06 10:51 45.47214 5.18701 18917 ft 347 kts 184°
2026-05-06 10:52 45.44796 5.18547 19537 ft 349 kts 184°
2026-05-06 10:52 45.42359 5.18391 20164 ft 351 kts 184°
2026-05-06 10:52 45.39935 5.18239 20748 ft 354 kts 184°
2026-05-06 10:52 45.37465 5.18083 21327 ft 357 kts 184°
2026-05-06 10:53 45.34975 5.17925 21908 ft 360 kts 184°
2026-05-06 10:53 45.32463 5.17760 22485 ft 363 kts 184°
2026-05-06 10:53 45.29937 5.17591 23068 ft 365 kts 184°
2026-05-06 10:53 45.27386 5.17423 23612 ft 368 kts 184°
2026-05-06 10:54 45.24819 5.17255 24056 ft 371 kts 185°
2026-05-06 10:54 45.22232 5.17090 24546 ft 373 kts 185°
2026-05-06 10:54 45.19634 5.16926 25046 ft 375 kts 186°
2026-05-06 10:54 45.17019 5.16762 25532 ft 377 kts 186°
2026-05-06 10:55 45.14391 5.16600 26005 ft 379 kts 186°
2026-05-06 10:55 45.11766 5.16308 26458 ft 378 kts 192°
2026-05-06 10:55 45.09218 5.15424 26887 ft 377 kts 201°
2026-05-06 10:55 45.06818 5.13941 27313 ft 376 kts 208°
2026-05-06 10:56 45.04480 5.12286 27825 ft 375 kts 209°
2026-05-06 10:56 45.02142 5.10643 28308 ft 376 kts 209°
2026-05-06 10:56 44.99791 5.08999 28793 ft 377 kts 209°
2026-05-06 10:56 44.97432 5.07352 29244 ft 379 kts 209°
2026-05-06 10:57 44.95066 5.05698 29671 ft 380 kts 209°
2026-05-06 10:57 44.92687 5.04038 30080 ft 382 kts 209°
2026-05-06 10:57 44.90306 5.02377 30391 ft 384 kts 209°
2026-05-06 10:57 44.87905 5.00702 30718 ft 385 kts 210°
2026-05-06 10:58 44.85501 4.99027 31130 ft 386 kts 210°
2026-05-06 10:58 44.83128 4.97381 31605 ft 384 kts 210°
2026-05-06 10:58 44.80736 4.95723 32058 ft 383 kts 209°
2026-05-06 10:58 44.78341 4.94064 32509 ft 385 kts 209°
2026-05-06 10:59 44.75938 4.92396 32906 ft 385 kts 209°
2026-05-06 10:59 44.73502 4.90701 33338 ft 385 kts 209°
2026-05-06 10:59 44.71132 4.89056 33783 ft 387 kts 208°
2026-05-06 10:59 44.68725 4.87372 34180 ft 386 kts 209°
2026-05-06 11:00 44.66329 4.85676 34515 ft 386 kts 209°
2026-05-06 11:00 44.63929 4.83967 34900 ft 387 kts 209°
2026-05-06 11:00 44.61521 4.82255 35286 ft 387 kts 209°
2026-05-06 11:00 44.59114 4.80548 35612 ft 388 kts 209°
2026-05-06 11:01 44.56644 4.79024 35878 ft 391 kts 201°
2026-05-06 11:01 44.53972 4.78142 36131 ft 397 kts 191°
2026-05-06 11:01 44.51190 4.77958 36367 ft 403 kts 185°
2026-05-06 11:01 44.48390 4.77964 36669 ft 402 kts 185°
2026-05-06 11:02 44.45589 4.77963 36893 ft 403 kts 185°
2026-05-06 11:02 44.39974 4.77951 36948 ft 403 kts 185°
2026-05-06 11:03 44.34396 4.77939 36942 ft 403 kts 185°
2026-05-06 11:03 44.28782 4.77930 36947 ft 403 kts 185°
2026-05-06 11:04 44.23171 4.77928 36948 ft 403 kts 185°
2026-05-06 11:04 44.17560 4.77914 36950 ft 403 kts 185°
2026-05-06 11:05 44.11942 4.77905 36935 ft 404 kts 186°
2026-05-06 11:05 44.06322 4.77897 36951 ft 404 kts 186°
2026-05-06 11:06 44.00701 4.77887 36960 ft 404 kts 186°
2026-05-06 11:06 43.95075 4.77871 36965 ft 404 kts 186°
2026-05-06 11:07 43.89481 4.77863 36960 ft 404 kts 186°
2026-05-06 11:07 43.83861 4.77850 36968 ft 404 kts 186°
2026-05-06 11:08 43.78237 4.77831 36973 ft 404 kts 186°
2026-05-06 11:08 43.72624 4.77819 36942 ft 404 kts 186°
2026-05-06 11:09 43.67008 4.77816 36965 ft 403 kts 186°
2026-05-06 11:09 43.61404 4.77803 36969 ft 403 kts 186°
2026-05-06 11:10 43.55793 4.77785 36979 ft 403 kts 186°
2026-05-06 11:10 43.50190 4.77780 36957 ft 403 kts 186°
2026-05-06 11:11 43.44586 4.77769 36964 ft 403 kts 186°
2026-05-06 11:11 43.39018 4.77755 36967 ft 403 kts 186°
2026-05-06 11:12 43.33416 4.77752 36967 ft 403 kts 186°
2026-05-06 11:12 43.27812 4.77743 36957 ft 403 kts 186°
2026-05-06 11:13 43.22207 4.77732 36968 ft 403 kts 186°
2026-05-06 11:13 43.16605 4.77717 36975 ft 403 kts 186°
2026-05-06 11:14 43.11000 4.77701 36956 ft 403 kts 186°
2026-05-06 11:14 43.05505 4.76953 36964 ft 392 kts 201°
2026-05-06 11:15 43.00623 4.73911 36974 ft 385 kts 212°
2026-05-06 11:15 42.95941 4.70343 36973 ft 385 kts 212°
2026-05-06 11:16 42.91248 4.66787 37040 ft 388 kts 212°
2026-05-06 11:16 42.86545 4.63236 36957 ft 386 kts 212°
2026-05-06 11:17 42.81867 4.59712 36950 ft 387 kts 212°
2026-05-06 11:17 42.77143 4.56161 36964 ft 388 kts 212°
2026-05-06 11:18 42.72409 4.52596 36957 ft 390 kts 212°
2026-05-06 11:18 42.67650 4.49021 36959 ft 391 kts 212°
2026-05-06 11:19 42.62882 4.45456 36963 ft 391 kts 212°
2026-05-06 11:19 42.58107 4.41890 36970 ft 392 kts 212°
2026-05-06 11:20 42.53327 4.38317 36978 ft 392 kts 212°
2026-05-06 11:20 42.48547 4.34751 36973 ft 392 kts 212°
2026-05-06 11:21 42.43773 4.31196 36979 ft 391 kts 212°
2026-05-06 11:21 42.39002 4.27661 37000 ft 391 kts 212°
2026-05-06 11:22 42.34268 4.24149 36984 ft 390 kts 212°
2026-05-06 11:22 42.29507 4.20617 36975 ft 390 kts 212°
2026-05-06 11:23 42.24744 4.17096 36985 ft 390 kts 212°
2026-05-06 11:23 42.19974 4.13580 36977 ft 391 kts 212°
2026-05-06 11:24 42.15194 4.10066 36983 ft 392 kts 212°
2026-05-06 11:24 42.10409 4.06551 36968 ft 392 kts 212°
2026-05-06 11:25 42.06433 4.03633 36979 ft 391 kts 212°
2026-05-06 11:25 42.01656 4.00143 36980 ft 391 kts 212°
2026-05-06 11:26 41.96098 3.96079 36980 ft 391 kts 212°
2026-05-06 11:26 41.91972 3.93457 36950 ft 395 kts 201°
2026-05-06 11:27 41.86535 3.92021 36967 ft 399 kts 195°
2026-05-06 11:27 41.81052 3.90754 36976 ft 399 kts 195°
2026-05-06 11:28 41.75622 3.89494 36984 ft 399 kts 195°
2026-05-06 11:28 41.70149 3.88232 36964 ft 399 kts 195°
2026-05-06 11:29 41.64678 3.86974 36976 ft 399 kts 195°
2026-05-06 11:29 41.59210 3.85723 36984 ft 399 kts 195°
2026-05-06 11:30 41.53747 3.84477 36981 ft 398 kts 195°
2026-05-06 11:30 41.48282 3.83218 36955 ft 398 kts 195°
2026-05-06 11:31 41.42817 3.81962 36981 ft 398 kts 195°
2026-05-06 11:31 41.37349 3.80712 36999 ft 398 kts 195°
2026-05-06 11:32 41.31887 3.79464 36998 ft 399 kts 195°
2026-05-06 11:32 41.26409 3.78214 36970 ft 399 kts 195°
2026-05-06 11:33 41.20928 3.76973 36983 ft 400 kts 195°
2026-05-06 11:33 41.15466 3.75658 36982 ft 396 kts 200°
2026-05-06 11:34 41.10350 3.73159 35927 ft 401 kts 206°
2026-05-06 11:34 41.07745 3.71805 35401 ft 398 kts 206°
2026-05-06 11:34 41.05196 3.70493 35115 ft 389 kts 206°
2026-05-06 11:34 41.02685 3.69205 34703 ft 385 kts 206°
2026-05-06 11:35 41.00202 3.67928 34279 ft 381 kts 206°
2026-05-06 11:35 40.97743 3.66661 33847 ft 377 kts 206°
2026-05-06 11:35 40.95308 3.65407 33408 ft 373 kts 206°
2026-05-06 11:35 40.92912 3.64179 32994 ft 368 kts 206°
2026-05-06 11:36 40.90542 3.62966 32593 ft 363 kts 206°
2026-05-06 11:36 40.88203 3.61771 32188 ft 358 kts 206°
2026-05-06 11:36 40.85893 3.60589 31794 ft 354 kts 207°
2026-05-06 11:36 40.83609 3.59421 31400 ft 350 kts 207°
2026-05-06 11:37 40.81347 3.58262 31026 ft 346 kts 207°
2026-05-06 11:37 40.79116 3.57118 30649 ft 343 kts 207°
2026-05-06 11:37 40.76892 3.55980 30279 ft 341 kts 207°
2026-05-06 11:37 40.74689 3.54854 29903 ft 338 kts 206°
2026-05-06 11:38 40.72499 3.53737 29526 ft 335 kts 206°
2026-05-06 11:38 40.70333 3.52633 29178 ft 332 kts 206°
2026-05-06 11:38 40.68192 3.51544 28840 ft 329 kts 206°
2026-05-06 11:38 40.66063 3.50463 28503 ft 325 kts 206°
2026-05-06 11:39 40.63991 3.49408 28176 ft 322 kts 206°
2026-05-06 11:39 40.61915 3.48353 27853 ft 318 kts 206°
2026-05-06 11:39 40.59865 3.47311 27528 ft 314 kts 206°
2026-05-06 11:39 40.57840 3.46283 27203 ft 310 kts 206°
2026-05-06 11:40 40.55843 3.45268 26883 ft 306 kts 207°
2026-05-06 11:40 40.53867 3.44264 26564 ft 302 kts 207°
2026-05-06 11:40 40.51915 3.43273 26246 ft 301 kts 206°
2026-05-06 11:40 40.49967 3.42288 25923 ft 299 kts 206°
2026-05-06 11:41 40.48027 3.41308 25602 ft 298 kts 206°
2026-05-06 11:41 40.46095 3.40331 25255 ft 297 kts 206°
2026-05-06 11:41 40.44091 3.39578 24876 ft 302 kts 196°
2026-05-06 11:41 40.41982 3.39356 24469 ft 309 kts 185°
2026-05-06 11:42 40.39832 3.39485 24094 ft 309 kts 184°
2026-05-06 11:42 40.37679 3.39613 23700 ft 310 kts 185°
2026-05-06 11:42 40.35522 3.39733 23259 ft 310 kts 185°
2026-05-06 11:42 40.33367 3.39852 22835 ft 309 kts 184°
2026-05-06 11:43 40.31244 3.39973 22433 ft 308 kts 184°
2026-05-06 11:43 40.29075 3.40099 22024 ft 307 kts 184°
2026-05-06 11:43 40.26968 3.40219 21623 ft 307 kts 184°
2026-05-06 11:44 40.22712 3.40462 20821 ft 306 kts 184°
2026-05-06 11:44 40.20587 3.40584 20416 ft 306 kts 184°
2026-05-06 11:44 40.18463 3.40705 20006 ft 305 kts 183°
2026-05-06 11:44 40.16341 3.40823 19610 ft 305 kts 183°
2026-05-06 11:45 40.14217 3.40941 19189 ft 306 kts 183°
2026-05-06 11:45 40.12083 3.41063 18797 ft 307 kts 183°
2026-05-06 11:45 40.09954 3.41183 18392 ft 307 kts 183°
2026-05-06 11:45 40.07807 3.41300 17945 ft 308 kts 183°
2026-05-06 11:46 40.05666 3.41421 17523 ft 307 kts 183°
2026-05-06 11:46 40.03516 3.41542 16833 ft 315 kts 182°
2026-05-06 11:46 40.01313 3.41662 16406 ft 314 kts 182°
2026-05-06 11:46 39.99144 3.41785 16064 ft 311 kts 182°
2026-05-06 11:47 39.96997 3.41908 15675 ft 309 kts 182°
2026-05-06 11:47 39.94854 3.42032 15302 ft 307 kts 182°
2026-05-06 11:47 39.92727 3.42154 14928 ft 305 kts 182°
2026-05-06 11:47 39.90614 3.42275 14561 ft 304 kts 182°
2026-05-06 11:48 39.88502 3.42395 14202 ft 303 kts 182°
2026-05-06 11:48 39.86408 3.42512 13846 ft 301 kts 182°
2026-05-06 11:48 39.84312 3.42629 13455 ft 300 kts 182°
2026-05-06 11:48 39.82231 3.42747 13062 ft 299 kts 182°
2026-05-06 11:49 39.80159 3.42863 12671 ft 297 kts 182°
2026-05-06 11:49 39.78120 3.42976 12292 ft 296 kts 181°
2026-05-06 11:49 39.76044 3.43091 11914 ft 295 kts 181°
2026-05-06 11:49 39.74000 3.43167 11516 ft 292 kts 187°
2026-05-06 11:50 39.72090 3.42462 11171 ft 284 kts 212°
2026-05-06 11:50 39.70675 3.40789 10796 ft 279 kts 237°
2026-05-06 11:50 39.69986 3.38459 10412 ft 279 kts 263°
2026-05-06 11:50 39.69994 3.35939 10020 ft 280 kts 271°
2026-05-06 11:51 39.70083 3.33413 9589 ft 278 kts 271°
2026-05-06 11:51 39.70171 3.30910 8890 ft 277 kts 271°
2026-05-06 11:51 39.70254 3.28414 8208 ft 277 kts 271°
2026-05-06 11:51 39.70331 3.25924 7526 ft 276 kts 271°
2026-05-06 11:52 39.70411 3.23424 6810 ft 278 kts 271°
2026-05-06 11:52 39.70490 3.20941 6346 ft 270 kts 271°
2026-05-06 11:52 39.70563 3.18552 5960 ft 260 kts 271°
2026-05-06 11:52 39.70633 3.16255 5614 ft 249 kts 272°
2026-05-06 11:53 39.70699 3.14040 5299 ft 245 kts 271°
2026-05-06 11:53 39.70764 3.11831 4971 ft 245 kts 271°
2026-05-06 11:53 39.70779 3.09647 4641 ft 244 kts 263°
2026-05-06 11:53 39.70287 3.07543 4363 ft 241 kts 242°
2026-05-06 11:54 39.69423 3.05687 4059 ft 239 kts 238°
2026-05-06 11:54 39.68557 3.03850 3788 ft 238 kts 238°
2026-05-06 11:54 39.67711 3.02052 3490 ft 236 kts 238°
2026-05-06 11:54 39.66859 3.00236 3211 ft 234 kts 238°
2026-05-06 11:55 39.66017 2.98440 2924 ft 232 kts 238°
2026-05-06 11:55 39.65185 2.96664 2680 ft 228 kts 238°
2026-05-06 11:55 39.64375 2.94939 2561 ft 219 kts 238°
2026-05-06 11:55 39.63601 2.93289 2459 ft 208 kts 238°
2026-05-06 11:56 39.62866 2.91726 2464 ft 199 kts 238°
2026-05-06 11:56 39.62166 2.90240 2508 ft 184 kts 238°
2026-05-06 11:56 39.61524 2.88870 2349 ft 173 kts 238°
2026-05-06 11:56 39.60915 2.87564 2088 ft 164 kts 238°
2026-05-06 11:57 39.60335 2.86338 1817 ft 155 kts 238°
2026-05-06 11:57 39.59789 2.85198 1661 ft 145 kts 237°
2026-05-06 11:57 39.59274 2.84086 1456 ft 142 kts 238°
2026-05-06 11:57 39.58770 2.82991 1283 ft 141 kts 238°
2026-05-06 11:58 39.58257 2.81917 1100 ft 139 kts 237°
2026-05-06 11:58 39.57746 2.80856 926 ft 138 kts 237°
2026-05-06 11:58 39.57248 2.79810 741 ft 135 kts 238°
2026-05-06 11:58 39.56767 2.78775 544 ft 133 kts 238°
2026-05-06 11:59 39.56292 2.77758 355 ft 131 kts 237°
2026-05-06 11:59 39.55822 2.76769 174 ft 129 kts 238°
2026-05-06 11:59 39.55356 2.75778 29 ft 124 kts 238°
2026-05-06 11:59 39.54998 2.75022 28 ft 60 kts 238°
2026-05-06 12:00 39.54848 2.74690 30 ft 36 kts 247°
2026-05-06 12:00 39.54800 2.74405 31 ft 29 kts 268°
2026-05-06 12:00 39.54799 2.74236 32 ft 16 kts 270°
2026-05-06 12:00 39.54776 2.74086 31 ft 18 kts 243°
2026-05-06 12:01 39.54702 2.73942 34 ft 20 kts 239°
2026-05-06 12:01 39.54626 2.73782 35 ft 21 kts 239°
2026-05-06 12:01 39.54592 2.73654 35 ft 15 kts 301°
2026-05-06 12:01 39.54684 2.73598 35 ft 15 kts 331°
2026-05-06 12:02 39.54757 2.73538 35 ft 10 kts 327°
2026-05-06 12:02 39.54783 2.73521 35 ft 3 kts 352°
2026-05-06 12:02 39.54813 2.73527 35 ft 5 kts 34°
2026-05-06 12:02 39.54831 2.73566 35 ft 4 kts 59°
2026-05-06 12:03 39.54833 2.73569 35 ft 0 kts 59°